owner,sensor,date,latitude,longitude,vertical_datum,wind_speed,wind_to_direction,wind_speed_of_gust,qcFlag 
ADCP,ioos:station:wmo:42376:1,2010-06-01T00:00:00Z,29.1080,-87.9440,1.0,1.4,201.0,99.0,'11111222,11111222,11144222' 
ADCP,ioos:station:wmo:42376:1,2010-06-01T00:20:00Z,29.1080,-87.9440,1.0,1.4,201.0,99.0,'11111222,11111222,11144222' 
ADCP,ioos:station:wmo:42376:1,2010-06-01T00:40:00Z,29.1080,-87.9440,1.0,2.7,177.0,99.0,'11111222,11111222,11144222' 
ADCP,ioos:station:wmo:42376:1,2010-06-01T01:00:00Z,29.1080,-87.9440,1.0,3.8,183.0,99.0,'11111222,11111222,11144222' 
ADCP,ioos:station:wmo:42376:1,2010-06-01T01:20:00Z,29.1080,-87.9440,1.0,3.8,183.0,99.0,'11111222,11111222,11144222' 
ADCP,ioos:station:wmo:42376:1,2010-06-01T01:40:00Z,29.1080,-87.9440,1.0,4.5,186.0,99.0,'11111222,11111222,11144222' 
ADCP,ioos:station:wmo:42376:1,2010-06-01T02:00:00Z,29.1080,-87.9440,1.0,4.2,185.0,99.0,'11111222,11111222,11144222' 
ADCP,ioos:station:wmo:42376:1,2010-06-01T02:20:00Z,29.1080,-87.9440,1.0,4.2,185.0,99.0,'11111222,11111222,11144222' 
ADCP,ioos:station:wmo:42376:1,2010-06-01T02:40:00Z,29.1080,-87.9440,1.0,3.9,175.0,99.0,'11111222,11111222,11144222' 
ADCP,ioos:station:wmo:42376:1,2010-06-01T03:00:00Z,29.1080,-87.9440,1.0,3.7,175.0,99.0,'11111222,11111222,11144222' 
ADCP,ioos:station:wmo:42376:1,2010-06-01T03:20:00Z,29.1080,-87.9440,1.0,3.7,175.0,99.0,'11111222,11111222,11144222' 
ADCP,ioos:station:wmo:42376:1,2010-06-01T03:40:00Z,29.1080,-87.9440,1.0,3.7,178.0,99.0,'11111222,11111222,11144222' 
ADCP,ioos:station:wmo:42376:1,2010-06-01T04:00:00Z,29.1080,-87.9440,1.0,3.5,182.0,99.0,'11111222,11111222,11144222' 
ADCP,ioos:station:wmo:42376:1,2010-06-01T04:20:00Z,29.1080,-87.9440,1.0,3.5,182.0,99.0,'11111222,11111222,11144222' 
ADCP,ioos:station:wmo:42376:1,2010-06-01T04:40:00Z,29.1080,-87.9440,1.0,4.9,190.0,99.0,'11111222,11111222,11144222' 
ADCP,ioos:station:wmo:42376:1,2010-06-01T05:00:00Z,29.1080,-87.9440,1.0,4.2,197.0,99.0,'11111222,11111222,11144222' 
ADCP,ioos:station:wmo:42376:1,2010-06-01T05:20:00Z,29.1080,-87.9440,1.0,4.2,197.0,99.0,'11111222,11111222,11144222' 
ADCP,ioos:station:wmo:42376:1,2010-06-01T05:40:00Z,29.1080,-87.9440,1.0,4.4,193.0,99.0,'11111222,11111222,11144222' 
ADCP,ioos:station:wmo:42376:1,2010-06-01T06:00:00Z,29.1080,-87.9440,1.0,4.2,198.0,99.0,'11111222,11111222,11144222' 
ADCP,ioos:station:wmo:42376:1,2010-06-01T06:20:00Z,29.1080,-87.9440,1.0,4.2,198.0,99.0,'11111222,11111222,11144222' 
ADCP,ioos:station:wmo:42376:1,2010-06-01T06:40:00Z,29.1080,-87.9440,1.0,4.3,201.0,99.0,'11111222,11111222,11144222' 
ADCP,ioos:station:wmo:42376:1,2010-06-01T07:00:00Z,29.1080,-87.9440,1.0,4.6,197.0,99.0,'11111222,11111222,11144222' 
ADCP,ioos:station:wmo:42376:1,2010-06-01T07:20:00Z,29.1080,-87.9440,1.0,4.6,197.0,99.0,'11111222,11111222,11144222' 
ADCP,ioos:station:wmo:42376:1,2010-06-01T07:40:00Z,29.1080,-87.9440,1.0,3.9,201.0,99.0,'11111222,11111222,11144222' 
ADCP,ioos:station:wmo:42376:1,2010-06-01T08:00:00Z,29.1080,-87.9440,1.0,4.0,219.0,99.0,'11111222,11111222,11144222' 
ADCP,ioos:station:wmo:42376:1,2010-06-01T08:20:00Z,29.1080,-87.9440,1.0,4.0,219.0,99.0,'11111222,11111222,11144222' 
ADCP,ioos:station:wmo:42376:1,2010-06-01T08:40:00Z,29.1080,-87.9440,1.0,3.8,228.0,99.0,'11111222,11111222,11144222' 
ADCP,ioos:station:wmo:42376:1,2010-06-01T09:00:00Z,29.1080,-87.9440,1.0,4.1,222.0,99.0,'11111222,11111222,11144222' 
ADCP,ioos:station:wmo:42376:1,2010-06-01T09:20:00Z,29.1080,-87.9440,1.0,4.1,222.0,99.0,'11111222,11111222,11144222' 
ADCP,ioos:station:wmo:42376:1,2010-06-01T09:40:00Z,29.1080,-87.9440,1.0,3.8,228.0,99.0,'11111222,11111222,11144222' 
ADCP,ioos:station:wmo:42376:1,2010-06-01T10:00:00Z,29.1080,-87.9440,1.0,3.5,231.0,99.0,'11111222,11111222,11144222' 
ADCP,ioos:station:wmo:42376:1,2010-06-01T10:20:00Z,29.1080,-87.9440,1.0,3.5,231.0,99.0,'11111222,11111222,11144222' 
ADCP,ioos:station:wmo:42376:1,2010-06-01T10:40:00Z,29.1080,-87.9440,1.0,3.3,239.0,99.0,'11111222,11111222,11144222' 
ADCP,ioos:station:wmo:42376:1,2010-06-01T11:00:00Z,29.1080,-87.9440,1.0,3.8,232.0,99.0,'11111222,11111222,11144222' 
ADCP,ioos:station:wmo:42376:1,2010-06-01T11:20:00Z,29.1080,-87.9440,1.0,3.8,232.0,99.0,'11111222,11111222,11144222' 
ADCP,ioos:station:wmo:42376:1,2010-06-01T11:40:00Z,29.1080,-87.9440,1.0,3.8,234.0,99.0,'11111222,11111222,11144222' 
ADCP,ioos:station:wmo:42376:1,2010-06-01T12:00:00Z,29.1080,-87.9440,1.0,3.4,253.0,99.0,'11111222,11111222,11144222' 
ADCP,ioos:station:wmo:42376:1,2010-06-01T12:20:00Z,29.1080,-87.9440,1.0,3.4,253.0,99.0,'11111222,11111222,11144222' 
ADCP,ioos:station:wmo:42376:1,2010-06-01T12:40:00Z,29.1080,-87.9440,1.0,3.4,243.0,99.0,'11111222,11111222,11144222' 
ADCP,ioos:station:wmo:42376:1,2010-06-01T13:00:00Z,29.1080,-87.9440,1.0,3.1,241.0,99.0,'11111222,11111222,11144222' 
ADCP,ioos:station:wmo:42376:1,2010-06-01T13:20:00Z,29.1080,-87.9440,1.0,3.1,241.0,99.0,'11111222,11111222,11144222' 
ADCP,ioos:station:wmo:42376:1,2010-06-01T13:40:00Z,29.1080,-87.9440,1.0,3.4,233.0,99.0,'11111222,11111222,11144222' 
ADCP,ioos:station:wmo:42376:1,2010-06-01T14:00:00Z,29.1080,-87.9440,1.0,4.0,262.0,99.0,'11111222,11111222,11144222' 
ADCP,ioos:station:wmo:42376:1,2010-06-01T14:20:00Z,29.1080,-87.9440,1.0,4.0,262.0,99.0,'11111222,11111222,11144222' 
ADCP,ioos:station:wmo:42376:1,2010-06-01T14:40:00Z,29.1080,-87.9440,1.0,3.1,302.0,99.0,'11111222,11111222,11144222' 
ADCP,ioos:station:wmo:42376:1,2010-06-01T15:00:00Z,29.1080,-87.9440,1.0,2.0,274.0,99.0,'11111222,11111222,11144222' 
ADCP,ioos:station:wmo:42376:1,2010-06-01T15:20:00Z,29.1080,-87.9440,1.0,2.0,274.0,99.0,'11111222,11111222,11144222' 
ADCP,ioos:station:wmo:42376:1,2010-06-01T15:40:00Z,29.1080,-87.9440,1.0,1.3,270.0,99.0,'11111222,11111222,11144222' 
ADCP,ioos:station:wmo:42376:1,2010-06-01T16:00:00Z,29.1080,-87.9440,1.0,1.6,284.0,99.0,'11111222,11111222,11144222' 
ADCP,ioos:station:wmo:42376:1,2010-06-01T16:20:00Z,29.1080,-87.9440,1.0,1.6,284.0,99.0,'11111222,11111222,11144222' 
ADCP,ioos:station:wmo:42376:1,2010-06-01T16:40:00Z,29.1080,-87.9440,1.0,1.6,276.0,99.0,'11111222,11111222,11144222' 
ADCP,ioos:station:wmo:42376:1,2010-06-01T17:00:00Z,29.1080,-87.9440,1.0,1.8,271.0,99.0,'11111222,11111222,11144222' 
ADCP,ioos:station:wmo:42376:1,2010-06-01T17:20:00Z,29.1080,-87.9440,1.0,1.8,271.0,99.0,'11111222,11111222,11144222' 
ADCP,ioos:station:wmo:42376:1,2010-06-01T17:40:00Z,29.1080,-87.9440,1.0,2.3,237.0,99.0,'11111222,11111222,11144222' 
ADCP,ioos:station:wmo:42376:1,2010-06-01T18:00:00Z,29.1080,-87.9440,1.0,2.7,219.0,99.0,'11111222,11111222,11144222' 
ADCP,ioos:station:wmo:42376:1,2010-06-01T18:20:00Z,29.1080,-87.9440,1.0,2.7,219.0,99.0,'11111222,11111222,11144222' 
ADCP,ioos:station:wmo:42376:1,2010-06-01T18:40:00Z,29.1080,-87.9440,1.0,2.4,201.0,99.0,'11111222,11111222,11144222' 
ADCP,ioos:station:wmo:42376:1,2010-06-01T19:00:00Z,29.1080,-87.9440,1.0,2.4,202.0,99.0,'11111222,11111222,11144222' 
ADCP,ioos:station:wmo:42376:1,2010-06-01T19:20:00Z,29.1080,-87.9440,1.0,2.4,202.0,99.0,'11111222,11111222,11144222' 
ADCP,ioos:station:wmo:42376:1,2010-06-01T19:40:00Z,29.1080,-87.9440,1.0,2.5,198.0,99.0,'11111222,11111222,11144222' 
ADCP,ioos:station:wmo:42376:1,2010-06-01T20:00:00Z,29.1080,-87.9440,1.0,2.6,170.0,99.0,'11111222,11111222,11144222' 
ADCP,ioos:station:wmo:42376:1,2010-06-01T20:20:00Z,29.1080,-87.9440,1.0,2.6,170.0,99.0,'11111222,11111222,11144222' 
ADCP,ioos:station:wmo:42376:1,2010-06-01T20:40:00Z,29.1080,-87.9440,1.0,3.1,163.0,99.0,'11111222,11111222,11144222' 
ADCP,ioos:station:wmo:42376:1,2010-06-01T21:00:00Z,29.1080,-87.9440,1.0,3.1,169.0,99.0,'11111222,11111222,11144222' 
ADCP,ioos:station:wmo:42376:1,2010-06-01T21:20:00Z,29.1080,-87.9440,1.0,3.1,169.0,99.0,'11111222,11111222,11144222' 
ADCP,ioos:station:wmo:42376:1,2010-06-01T21:40:00Z,29.1080,-87.9440,1.0,2.5,175.0,99.0,'11111222,11111222,11144222' 
ADCP,ioos:station:wmo:42376:1,2010-06-01T22:00:00Z,29.1080,-87.9440,1.0,3.4,178.0,99.0,'11111222,11111222,11144222' 
ADCP,ioos:station:wmo:42376:1,2010-06-01T22:40:00Z,29.1080,-87.9440,1.0,5.5,194.0,99.0,'11111222,11111222,11144222' 
ADCP,ioos:station:wmo:42376:1,2010-06-01T23:00:00Z,29.1080,-87.9440,1.0,5.8,191.0,99.0,'11111222,11111222,11144222' 
ADCP,ioos:station:wmo:42376:1,2010-06-01T23:20:00Z,29.1080,-87.9440,1.0,5.8,191.0,99.0,'11111222,11111222,11144222' 
ADCP,ioos:station:wmo:42376:1,2010-06-01T23:40:00Z,29.1080,-87.9440,1.0,5.1,187.0,99.0,'11111222,11111222,11144222' 
ADCP,ioos:station:wmo:42376:1,2010-06-02T00:00:00Z,29.1080,-87.9440,1.0,4.8,183.0,99.0,'11111222,11111222,11144222' 
ADCP,ioos:station:wmo:42376:1,2010-06-02T00:20:00Z,29.1080,-87.9440,1.0,4.8,183.0,99.0,'11111222,11111222,11144222' 
ADCP,ioos:station:wmo:42376:1,2010-06-02T00:40:00Z,29.1080,-87.9440,1.0,4.2,194.0,99.0,'11111222,11111222,11144222' 
ADCP,ioos:station:wmo:42376:1,2010-06-02T01:00:00Z,29.1080,-87.9440,1.0,3.5,204.0,99.0,'11111222,11111222,11144222' 
ADCP,ioos:station:wmo:42376:1,2010-06-02T01:20:00Z,29.1080,-87.9440,1.0,3.5,204.0,99.0,'11111222,11111222,11144222' 
ADCP,ioos:station:wmo:42376:1,2010-06-02T01:40:00Z,29.1080,-87.9440,1.0,3.7,195.0,99.0,'11111222,11111222,11144222' 
ADCP,ioos:station:wmo:42376:1,2010-06-02T02:00:00Z,29.1080,-87.9440,1.0,3.2,190.0,99.0,'11111222,11111222,11144222' 
ADCP,ioos:station:wmo:42376:1,2010-06-02T02:20:00Z,29.1080,-87.9440,1.0,3.2,190.0,99.0,'11111222,11111222,11144222' 
ADCP,ioos:station:wmo:42376:1,2010-06-02T02:40:00Z,29.1080,-87.9440,1.0,4.0,190.0,99.0,'11111222,11111222,11144222' 
ADCP,ioos:station:wmo:42376:1,2010-06-02T03:00:00Z,29.1080,-87.9440,1.0,5.1,189.0,99.0,'11111222,11111222,11144222' 
ADCP,ioos:station:wmo:42376:1,2010-06-02T03:20:00Z,29.1080,-87.9440,1.0,5.1,189.0,99.0,'11111222,11111222,11144222' 
ADCP,ioos:station:wmo:42376:1,2010-06-02T03:40:00Z,29.1080,-87.9440,1.0,5.3,199.0,99.0,'11111222,11111222,11144222' 
ADCP,ioos:station:wmo:42376:1,2010-06-02T04:00:00Z,29.1080,-87.9440,1.0,5.4,200.0,99.0,'11111222,11111222,11144222' 
ADCP,ioos:station:wmo:42376:1,2010-06-02T04:20:00Z,29.1080,-87.9440,1.0,5.4,200.0,99.0,'11111222,11111222,11144222' 
ADCP,ioos:station:wmo:42376:1,2010-06-02T04:40:00Z,29.1080,-87.9440,1.0,5.2,198.0,99.0,'11111222,11111222,11144222' 
ADCP,ioos:station:wmo:42376:1,2010-06-02T05:00:00Z,29.1080,-87.9440,1.0,4.7,196.0,99.0,'11111222,11111222,11144222' 
ADCP,ioos:station:wmo:42376:1,2010-06-02T05:20:00Z,29.1080,-87.9440,1.0,4.7,196.0,99.0,'11111222,11111222,11144222' 
ADCP,ioos:station:wmo:42376:1,2010-06-02T05:40:00Z,29.1080,-87.9440,1.0,4.7,199.0,99.0,'11111222,11111222,11144222' 
ADCP,ioos:station:wmo:42376:1,2010-06-02T06:00:00Z,29.1080,-87.9440,1.0,5.4,195.0,99.0,'11111222,11111222,11144222' 
ADCP,ioos:station:wmo:42376:1,2010-06-02T06:20:00Z,29.1080,-87.9440,1.0,5.4,195.0,99.0,'11111222,11111222,11144222' 
ADCP,ioos:station:wmo:42376:1,2010-06-02T06:40:00Z,29.1080,-87.9440,1.0,5.6,194.0,99.0,'11111222,11111222,11144222' 
ADCP,ioos:station:wmo:42376:1,2010-06-02T07:00:00Z,29.1080,-87.9440,1.0,5.6,189.0,99.0,'11111222,11111222,11144222' 
ADCP,ioos:station:wmo:42376:1,2010-06-02T07:20:00Z,29.1080,-87.9440,1.0,5.6,189.0,99.0,'11111222,11111222,11144222' 
ADCP,ioos:station:wmo:42376:1,2010-06-02T07:40:00Z,29.1080,-87.9440,1.0,6.1,188.0,99.0,'11111222,11111222,11144222' 
ADCP,ioos:station:wmo:42376:1,2010-06-02T08:00:00Z,29.1080,-87.9440,1.0,6.3,193.0,99.0,'11111222,11111222,11144222' 
ADCP,ioos:station:wmo:42376:1,2010-06-02T08:20:00Z,29.1080,-87.9440,1.0,6.3,193.0,99.0,'11111222,11111222,11144222' 
ADCP,ioos:station:wmo:42376:1,2010-06-02T08:40:00Z,29.1080,-87.9440,1.0,5.6,198.0,99.0,'11111222,11111222,11144222' 
ADCP,ioos:station:wmo:42376:1,2010-06-02T09:00:00Z,29.1080,-87.9440,1.0,5.5,196.0,99.0,'11111222,11111222,11144222' 
ADCP,ioos:station:wmo:42376:1,2010-06-02T09:20:00Z,29.1080,-87.9440,1.0,5.5,196.0,99.0,'11111222,11111222,11144222' 
ADCP,ioos:station:wmo:42376:1,2010-06-02T09:40:00Z,29.1080,-87.9440,1.0,6.0,193.0,99.0,'11111222,11111222,11144222' 
ADCP,ioos:station:wmo:42376:1,2010-06-02T10:00:00Z,29.1080,-87.9440,1.0,4.9,193.0,99.0,'11111222,11111222,11144222' 
ADCP,ioos:station:wmo:42376:1,2010-06-02T10:20:00Z,29.1080,-87.9440,1.0,4.9,193.0,99.0,'11111222,11111222,11144222' 
ADCP,ioos:station:wmo:42376:1,2010-06-02T10:40:00Z,29.1080,-87.9440,1.0,5.5,195.0,99.0,'11111222,11111222,11144222' 
ADCP,ioos:station:wmo:42376:1,2010-06-02T11:00:00Z,29.1080,-87.9440,1.0,5.7,229.0,99.0,'11111222,11111222,11144222' 
ADCP,ioos:station:wmo:42376:1,2010-06-02T11:20:00Z,29.1080,-87.9440,1.0,5.7,229.0,99.0,'11111222,11111222,11144222' 
ADCP,ioos:station:wmo:42376:1,2010-06-02T11:40:00Z,29.1080,-87.9440,1.0,2.4,203.0,99.0,'11111222,11111222,11144222' 
ADCP,ioos:station:wmo:42376:1,2010-06-02T12:00:00Z,29.1080,-87.9440,1.0,2.4,166.0,99.0,'11111222,11111222,11144222' 
ADCP,ioos:station:wmo:42376:1,2010-06-02T12:20:00Z,29.1080,-87.9440,1.0,2.4,166.0,99.0,'11111222,11111222,11144222' 
ADCP,ioos:station:wmo:42376:1,2010-06-02T12:40:00Z,29.1080,-87.9440,1.0,2.9,189.0,99.0,'11111222,11111222,11144222' 
ADCP,ioos:station:wmo:42376:1,2010-06-02T13:00:00Z,29.1080,-87.9440,1.0,3.2,188.0,99.0,'11111222,11111222,11144222' 
ADCP,ioos:station:wmo:42376:1,2010-06-02T13:20:00Z,29.1080,-87.9440,1.0,3.2,188.0,99.0,'11111222,11111222,11144222' 
ADCP,ioos:station:wmo:42376:1,2010-06-02T13:40:00Z,29.1080,-87.9440,1.0,2.9,189.0,99.0,'11111222,11111222,11144222' 
ADCP,ioos:station:wmo:42376:1,2010-06-02T14:00:00Z,29.1080,-87.9440,1.0,2.9,183.0,99.0,'11111222,11111222,11144222' 
ADCP,ioos:station:wmo:42376:1,2010-06-02T14:20:00Z,29.1080,-87.9440,1.0,2.9,183.0,99.0,'11111222,11111222,11144222' 
ADCP,ioos:station:wmo:42376:1,2010-06-02T14:40:00Z,29.1080,-87.9440,1.0,3.5,181.0,99.0,'11111222,11111222,11144222' 
ADCP,ioos:station:wmo:42376:1,2010-06-02T15:00:00Z,29.1080,-87.9440,1.0,3.7,161.0,99.0,'11111222,11111222,11144222' 
ADCP,ioos:station:wmo:42376:1,2010-06-02T15:20:00Z,29.1080,-87.9440,1.0,3.7,161.0,99.0,'11111222,11111222,11144222' 
ADCP,ioos:station:wmo:42376:1,2010-06-02T15:40:00Z,29.1080,-87.9440,1.0,4.4,196.0,99.0,'11111222,11111222,11144222' 
ADCP,ioos:station:wmo:42376:1,2010-06-02T16:00:00Z,29.1080,-87.9440,1.0,4.1,184.0,99.0,'11111222,11111222,11144222' 
ADCP,ioos:station:wmo:42376:1,2010-06-02T16:20:00Z,29.1080,-87.9440,1.0,4.1,184.0,99.0,'11111222,11111222,11144222' 
ADCP,ioos:station:wmo:42376:1,2010-06-02T16:40:00Z,29.1080,-87.9440,1.0,4.0,194.0,99.0,'11111222,11111222,11144222' 
ADCP,ioos:station:wmo:42376:1,2010-06-02T17:00:00Z,29.1080,-87.9440,1.0,3.3,188.0,99.0,'11111222,11111222,11144222' 
ADCP,ioos:station:wmo:42376:1,2010-06-02T19:20:00Z,29.1080,-87.9440,1.0,4.4,175.0,99.0,'11111222,11111222,11144222' 
ADCP,ioos:station:wmo:42376:1,2010-06-02T19:40:00Z,29.1080,-87.9440,1.0,5.3,195.0,99.0,'11111222,11111222,11144222' 
ADCP,ioos:station:wmo:42376:1,2010-06-02T20:00:00Z,29.1080,-87.9440,1.0,5.9,201.0,99.0,'11111222,11111222,11144222' 
ADCP,ioos:station:wmo:42376:1,2010-06-02T20:20:00Z,29.1080,-87.9440,1.0,5.9,201.0,99.0,'11111222,11111222,11144222' 
ADCP,ioos:station:wmo:42376:1,2010-06-02T20:40:00Z,29.1080,-87.9440,1.0,6.6,220.0,99.0,'11111222,11111222,11144222' 
ADCP,ioos:station:wmo:42376:1,2010-06-02T21:00:00Z,29.1080,-87.9440,1.0,4.9,206.0,99.0,'11111222,11111222,11144222' 
ADCP,ioos:station:wmo:42376:1,2010-06-02T21:20:00Z,29.1080,-87.9440,1.0,4.9,206.0,99.0,'11111222,11111222,11144222' 
ADCP,ioos:station:wmo:42376:1,2010-06-02T21:40:00Z,29.1080,-87.9440,1.0,4.7,200.0,99.0,'11111222,11111222,11144222' 
ADCP,ioos:station:wmo:42376:1,2010-06-02T22:00:00Z,29.1080,-87.9440,1.0,4.6,218.0,99.0,'11111222,11111222,11144222' 
ADCP,ioos:station:wmo:42376:1,2010-06-02T22:20:00Z,29.1080,-87.9440,1.0,4.6,218.0,99.0,'11111222,11111222,11144222' 
ADCP,ioos:station:wmo:42376:1,2010-06-02T22:40:00Z,29.1080,-87.9440,1.0,3.7,214.0,99.0,'11111222,11111222,11144222' 
ADCP,ioos:station:wmo:42376:1,2010-06-02T23:00:00Z,29.1080,-87.9440,1.0,2.0,190.0,99.0,'11111222,11111222,11144222' 
ADCP,ioos:station:wmo:42376:1,2010-06-02T23:20:00Z,29.1080,-87.9440,1.0,2.0,190.0,99.0,'11111222,11111222,11144222' 
ADCP,ioos:station:wmo:42376:1,2010-06-02T23:40:00Z,29.1080,-87.9440,1.0,2.6,159.0,99.0,'11111222,11111222,11144222' 
ADCP,ioos:station:wmo:42376:1,2010-06-03T00:00:00Z,29.1080,-87.9440,1.0,2.7,175.0,99.0,'11111222,11111222,11144222' 
ADCP,ioos:station:wmo:42376:1,2010-06-03T00:20:00Z,29.1080,-87.9440,1.0,2.7,175.0,99.0,'11111222,11111222,11144222' 
ADCP,ioos:station:wmo:42376:1,2010-06-03T00:40:00Z,29.1080,-87.9440,1.0,3.1,178.0,99.0,'11111222,11111222,11144222' 
ADCP,ioos:station:wmo:42376:1,2010-06-03T01:00:00Z,29.1080,-87.9440,1.0,3.9,197.0,99.0,'11111222,11111222,11144222' 
ADCP,ioos:station:wmo:42376:1,2010-06-03T01:20:00Z,29.1080,-87.9440,1.0,3.9,197.0,99.0,'11111222,11111222,11144222' 
ADCP,ioos:station:wmo:42376:1,2010-06-03T01:40:00Z,29.1080,-87.9440,1.0,4.0,205.0,99.0,'11111222,11111222,11144222' 
ADCP,ioos:station:wmo:42376:1,2010-06-03T02:00:00Z,29.1080,-87.9440,1.0,2.9,195.0,99.0,'11111222,11111222,11144222' 
ADCP,ioos:station:wmo:42376:1,2010-06-03T02:20:00Z,29.1080,-87.9440,1.0,2.9,195.0,99.0,'11111222,11111222,11144222' 
ADCP,ioos:station:wmo:42376:1,2010-06-03T02:40:00Z,29.1080,-87.9440,1.0,2.5,189.0,99.0,'11111222,11111222,11144222' 
ADCP,ioos:station:wmo:42376:1,2010-06-03T03:00:00Z,29.1080,-87.9440,1.0,3.4,151.0,99.0,'11111222,11111222,11144222' 
ADCP,ioos:station:wmo:42376:1,2010-06-03T03:20:00Z,29.1080,-87.9440,1.0,3.4,151.0,99.0,'11111222,11111222,11144222' 
ADCP,ioos:station:wmo:42376:1,2010-06-03T03:40:00Z,29.1080,-87.9440,1.0,5.1,149.0,99.0,'11111222,11111222,11144222' 
ADCP,ioos:station:wmo:42376:1,2010-06-03T04:00:00Z,29.1080,-87.9440,1.0,5.1,148.0,99.0,'11111222,11111222,11144222' 
ADCP,ioos:station:wmo:42376:1,2010-06-03T04:20:00Z,29.1080,-87.9440,1.0,5.1,148.0,99.0,'11111222,11111222,11144222' 
ADCP,ioos:station:wmo:42376:1,2010-06-03T04:40:00Z,29.1080,-87.9440,1.0,5.4,144.0,99.0,'11111222,11111222,11144222' 
ADCP,ioos:station:wmo:42376:1,2010-06-03T05:00:00Z,29.1080,-87.9440,1.0,4.8,156.0,99.0,'11111222,11111222,11144222' 
ADCP,ioos:station:wmo:42376:1,2010-06-03T05:20:00Z,29.1080,-87.9440,1.0,4.8,156.0,99.0,'11111222,11111222,11144222' 
ADCP,ioos:station:wmo:42376:1,2010-06-03T05:40:00Z,29.1080,-87.9440,1.0,5.8,165.0,99.0,'11111222,11111222,11144222' 
ADCP,ioos:station:wmo:42376:1,2010-06-03T06:00:00Z,29.1080,-87.9440,1.0,5.7,168.0,99.0,'11111222,11111222,11144222' 
ADCP,ioos:station:wmo:42376:1,2010-06-03T06:20:00Z,29.1080,-87.9440,1.0,5.7,168.0,99.0,'11111222,11111222,11144222' 
ADCP,ioos:station:wmo:42376:1,2010-06-03T06:40:00Z,29.1080,-87.9440,1.0,5.4,162.0,99.0,'11111222,11111222,11144222' 
ADCP,ioos:station:wmo:42376:1,2010-06-03T07:00:00Z,29.1080,-87.9440,1.0,5.6,150.0,99.0,'11111222,11111222,11144222' 
ADCP,ioos:station:wmo:42376:1,2010-06-03T07:20:00Z,29.1080,-87.9440,1.0,5.6,150.0,99.0,'11111222,11111222,11144222' 
ADCP,ioos:station:wmo:42376:1,2010-06-03T07:40:00Z,29.1080,-87.9440,1.0,5.9,146.0,99.0,'11111222,11111222,11144222' 
ADCP,ioos:station:wmo:42376:1,2010-06-03T08:00:00Z,29.1080,-87.9440,1.0,6.3,162.0,99.0,'11111222,11111222,11144222' 
ADCP,ioos:station:wmo:42376:1,2010-06-03T08:20:00Z,29.1080,-87.9440,1.0,6.3,162.0,99.0,'11111222,11111222,11144222' 
ADCP,ioos:station:wmo:42376:1,2010-06-03T08:40:00Z,29.1080,-87.9440,1.0,7.5,169.0,99.0,'11111222,11111222,11144222' 
ADCP,ioos:station:wmo:42376:1,2010-06-03T09:00:00Z,29.1080,-87.9440,1.0,7.5,167.0,99.0,'11111222,11111222,11144222' 
ADCP,ioos:station:wmo:42376:1,2010-06-03T09:20:00Z,29.1080,-87.9440,1.0,7.5,167.0,99.0,'11111222,11111222,11144222' 
ADCP,ioos:station:wmo:42376:1,2010-06-03T10:00:00Z,29.1080,-87.9440,1.0,7.1,170.0,99.0,'11111222,11111222,11144222' 
ADCP,ioos:station:wmo:42376:1,2010-06-03T10:20:00Z,29.1080,-87.9440,1.0,7.1,170.0,99.0,'11111222,11111222,11144222' 
ADCP,ioos:station:wmo:42376:1,2010-06-03T10:40:00Z,29.1080,-87.9440,1.0,6.6,175.0,99.0,'11111222,11111222,11144222' 
ADCP,ioos:station:wmo:42376:1,2010-06-03T11:00:00Z,29.1080,-87.9440,1.0,6.3,177.0,99.0,'11111222,11111222,11144222' 
ADCP,ioos:station:wmo:42376:1,2010-06-03T11:20:00Z,29.1080,-87.9440,1.0,6.3,177.0,99.0,'11111222,11111222,11144222' 
ADCP,ioos:station:wmo:42376:1,2010-06-03T11:40:00Z,29.1080,-87.9440,1.0,6.3,174.0,99.0,'11111222,11111222,11144222' 
ADCP,ioos:station:wmo:42376:1,2010-06-03T12:00:00Z,29.1080,-87.9440,1.0,6.1,163.0,99.0,'11111222,11111222,11144222' 
ADCP,ioos:station:wmo:42376:1,2010-06-03T12:20:00Z,29.1080,-87.9440,1.0,6.1,163.0,99.0,'11111222,11111222,11144222' 
ADCP,ioos:station:wmo:42376:1,2010-06-03T12:40:00Z,29.1080,-87.9440,1.0,6.5,165.0,99.0,'11111222,11111222,11144222' 
ADCP,ioos:station:wmo:42376:1,2010-06-03T13:00:00Z,29.1080,-87.9440,1.0,6.8,168.0,99.0,'11111222,11111222,11144222' 
ADCP,ioos:station:wmo:42376:1,2010-06-03T13:20:00Z,29.1080,-87.9440,1.0,6.8,168.0,99.0,'11111222,11111222,11144222' 
ADCP,ioos:station:wmo:42376:1,2010-06-03T13:40:00Z,29.1080,-87.9440,1.0,7.3,169.0,99.0,'11111222,11111222,11144222' 
ADCP,ioos:station:wmo:42376:1,2010-06-03T14:00:00Z,29.1080,-87.9440,1.0,6.8,165.0,99.0,'11111222,11111222,11144222' 
ADCP,ioos:station:wmo:42376:1,2010-06-03T14:20:00Z,29.1080,-87.9440,1.0,6.8,165.0,99.0,'11111222,11111222,11144222' 
ADCP,ioos:station:wmo:42376:1,2010-06-03T14:40:00Z,29.1080,-87.9440,1.0,6.4,166.0,99.0,'11111222,11111222,11144222' 
ADCP,ioos:station:wmo:42376:1,2010-06-03T15:00:00Z,29.1080,-87.9440,1.0,6.4,171.0,99.0,'11111222,11111222,11144222' 
ADCP,ioos:station:wmo:42376:1,2010-06-03T15:20:00Z,29.1080,-87.9440,1.0,6.4,171.0,99.0,'11111222,11111222,11144222' 
ADCP,ioos:station:wmo:42376:1,2010-06-03T15:40:00Z,29.1080,-87.9440,1.0,6.1,169.0,99.0,'11111222,11111222,11144222' 
ADCP,ioos:station:wmo:42376:1,2010-06-03T16:00:00Z,29.1080,-87.9440,1.0,5.7,165.0,99.0,'11111222,11111222,11144222' 
ADCP,ioos:station:wmo:42376:1,2010-06-03T16:20:00Z,29.1080,-87.9440,1.0,5.7,165.0,99.0,'11111222,11111222,11144222' 
ADCP,ioos:station:wmo:42376:1,2010-06-03T16:40:00Z,29.1080,-87.9440,1.0,7.2,169.0,99.0,'11111222,11111222,11144222' 
ADCP,ioos:station:wmo:42376:1,2010-06-03T17:00:00Z,29.1080,-87.9440,1.0,8.9,171.0,99.0,'11111222,11111222,11144222' 
ADCP,ioos:station:wmo:42376:1,2010-06-03T17:20:00Z,29.1080,-87.9440,1.0,8.9,171.0,99.0,'11111222,11111222,11144222' 
ADCP,ioos:station:wmo:42376:1,2010-06-03T17:40:00Z,29.1080,-87.9440,1.0,8.9,174.0,99.0,'11111222,11111222,11144222' 
ADCP,ioos:station:wmo:42376:1,2010-06-03T18:00:00Z,29.1080,-87.9440,1.0,5.3,158.0,99.0,'11111222,11111222,11144222' 
ADCP,ioos:station:wmo:42376:1,2010-06-03T18:40:00Z,29.1080,-87.9440,1.0,6.2,165.0,99.0,'11111222,11111222,11144222' 
ADCP,ioos:station:wmo:42376:1,2010-06-03T19:40:00Z,29.1080,-87.9440,1.0,6.0,154.0,99.0,'11111222,11111222,11144222' 
ADCP,ioos:station:wmo:42376:1,2010-06-03T20:00:00Z,29.1080,-87.9440,1.0,7.0,156.0,99.0,'11111222,11111222,11144222' 
ADCP,ioos:station:wmo:42376:1,2010-06-03T20:20:00Z,29.1080,-87.9440,1.0,7.0,156.0,99.0,'11111222,11111222,11144222' 
ADCP,ioos:station:wmo:42376:1,2010-06-03T20:40:00Z,29.1080,-87.9440,1.0,7.4,167.0,99.0,'11111222,11111222,11144222' 
ADCP,ioos:station:wmo:42376:1,2010-06-03T21:00:00Z,29.1080,-87.9440,1.0,10.3,228.0,99.0,'11111222,11111222,11144222' 
ADCP,ioos:station:wmo:42376:1,2010-06-03T21:20:00Z,29.1080,-87.9440,1.0,10.3,228.0,99.0,'11111222,11111222,11144222' 
ADCP,ioos:station:wmo:42376:1,2010-06-03T21:40:00Z,29.1080,-87.9440,1.0,6.5,193.0,99.0,'11111222,11111222,11144222' 
ADCP,ioos:station:wmo:42376:1,2010-06-03T22:00:00Z,29.1080,-87.9440,1.0,6.1,161.0,99.0,'11111222,11111222,11144222' 
ADCP,ioos:station:wmo:42376:1,2010-06-03T22:20:00Z,29.1080,-87.9440,1.0,6.1,161.0,99.0,'11111222,11111222,11144222' 
ADCP,ioos:station:wmo:42376:1,2010-06-03T22:40:00Z,29.1080,-87.9440,1.0,7.2,164.0,99.0,'11111222,11111222,11144222' 
ADCP,ioos:station:wmo:42376:1,2010-06-03T23:00:00Z,29.1080,-87.9440,1.0,6.7,164.0,99.0,'11111222,11111222,11144222' 
ADCP,ioos:station:wmo:42376:1,2010-06-03T23:20:00Z,29.1080,-87.9440,1.0,6.7,164.0,99.0,'11111222,11111222,11144222' 